MAU42 FIMP-EGKK

Flight info

Callsign MAU42
Flight time N/A
Altitude 30000
Route NIBIS2A NIBIS UG661 UVGET/N0499F320 UG661 DV UA401 IMGEX/N0492F340 UA401 NN UW325 SIPKI/N0490F350 UT325 POGBA/N0493F340 UT325 IPISU/N0484F360 UT325 FL UM731 DIR UB730 IKTAV/N0474F380 UB730 DJA UM2 CSO/N0464F390 DCT CIRTA/N0462F400 DCT BUKID DCT GARPU DCT PIGOS DCT BARSO DCT OKTET DCT GIPNO DCT BULOL DCT IDAVO DCT BAGBI DCT SIZZA DCT LAULY DCT BRY DCT CLM DCT KOPOR DCT KESAX DCT KUNAV
Aircraft A343/H-SDE2E3FGHIJ4J5M1RWXY/LB1D1

Departure

Time 2026-05-05 09:25
Airport Sir Seewoosagur Ramgoolam International Airport (FIMP)

Arrival

Time N/A
Airport London Gatwick Airport (EGKK)
Time Latitude Longitude Altitude Speed Heading
2026-05-05 08:48 -20.43388 57.68004 163 ft 0 kts 262°
2026-05-05 09:13 -20.43388 57.68005 217 ft 0 kts 262°
2026-05-05 09:13 -20.43385 57.68028 193 ft 4 kts 262°
2026-05-05 09:14 -20.43382 57.68056 206 ft 4 kts 262°
2026-05-05 09:14 -20.43378 57.68082 206 ft 3 kts 263°
2026-05-05 09:14 -20.43380 57.68106 206 ft 4 kts 317°
2026-05-05 09:14 -20.43402 57.68114 206 ft 4 kts
2026-05-05 09:15 -20.43427 57.68113 206 ft 2 kts 360°
2026-05-05 09:15 -20.43428 57.68113 206 ft 0 kts 359°
2026-05-05 09:18 -20.43402 57.68112 206 ft 6 kts 357°
2026-05-05 09:18 -20.43355 57.68106 203 ft 9 kts 349°
2026-05-05 09:19 -20.43283 57.68082 201 ft 12 kts 339°
2026-05-05 09:19 -20.43211 57.68043 199 ft 11 kts 327°
2026-05-05 09:19 -20.43149 57.67992 202 ft 11 kts 317°
2026-05-05 09:19 -20.43097 57.67923 205 ft 14 kts 302°
2026-05-05 09:20 -20.43049 57.67824 201 ft 15 kts 297°
2026-05-05 09:20 -20.43001 57.67723 202 ft 15 kts 296°
2026-05-05 09:20 -20.42939 57.67642 198 ft 14 kts 328°
2026-05-05 09:20 -20.42864 57.67597 203 ft 11 kts 329°
2026-05-05 09:21 -20.42806 57.67551 195 ft 10 kts 322°
2026-05-05 09:21 -20.42752 57.67506 201 ft 12 kts 323°
2026-05-05 09:21 -20.42669 57.67469 204 ft 12 kts 342°
2026-05-05 09:21 -20.42599 57.67440 210 ft 10 kts 332°
2026-05-05 09:22 -20.42554 57.67374 211 ft 12 kts 297°
2026-05-05 09:22 -20.42505 57.67276 212 ft 17 kts 298°
2026-05-05 09:22 -20.42453 57.67168 215 ft 15 kts 297°
2026-05-05 09:22 -20.42433 57.67067 211 ft 13 kts 266°
2026-05-05 09:23 -20.42426 57.66975 214 ft 13 kts 286°
2026-05-05 09:23 -20.42384 57.66922 219 ft 7 kts 350°
2026-05-05 09:23 -20.42356 57.66942 219 ft 4 kts 64°
2026-05-05 09:23 -20.42361 57.66974 215 ft 5 kts 112°
2026-05-05 09:24 -20.42372 57.66998 218 ft 6 kts 114°
2026-05-05 09:24 -20.42412 57.67090 219 ft 33 kts 116°
2026-05-05 09:24 -20.42605 57.67484 208 ft 86 kts 117°
2026-05-05 09:24 -20.42951 57.68205 201 ft 131 kts 117°
2026-05-05 09:25 -20.43608 57.69548 329 ft 167 kts 117°
2026-05-05 09:25 -20.43971 57.70283 686 ft 165 kts 117°
2026-05-05 09:25 -20.44726 57.71174 1274 ft 164 kts 144°
2026-05-05 09:25 -20.45840 57.71435 1795 ft 171 kts 184°
2026-05-05 09:26 -20.46893 57.70806 2284 ft 182 kts 220°
2026-05-05 09:26 -20.47832 57.69825 2524 ft 197 kts 218°
2026-05-05 09:26 -20.48860 57.68780 2752 ft 211 kts 219°
2026-05-05 09:26 -20.49942 57.67684 2931 ft 226 kts 219°
2026-05-05 09:27 -20.51141 57.66487 3126 ft 244 kts 220°
2026-05-05 09:27 -20.52427 57.65213 3381 ft 261 kts 220°
2026-05-05 09:27 -20.53802 57.63857 3648 ft 276 kts 219°
2026-05-05 09:27 -20.55241 57.62439 4088 ft 283 kts 219°
2026-05-05 09:28 -20.56699 57.61002 4638 ft 287 kts 219°
2026-05-05 09:28 -20.58169 57.59555 5227 ft 289 kts 219°
2026-05-05 09:28 -20.59658 57.58090 5724 ft 294 kts 219°
2026-05-05 09:28 -20.61174 57.56600 6255 ft 298 kts 219°
2026-05-05 09:29 -20.62686 57.55077 6781 ft 301 kts 224°
2026-05-05 09:29 -20.63823 57.53193 7277 ft 307 kts 250°
2026-05-05 09:29 -20.64021 57.50926 7760 ft 312 kts 278°
2026-05-05 09:29 -20.63610 57.48676 8275 ft 314 kts 283°
2026-05-05 09:30 -20.63109 57.46398 8798 ft 316 kts 283°
2026-05-05 09:30 -20.62612 57.44116 9401 ft 314 kts 283°
2026-05-05 09:30 -20.62121 57.41853 10060 ft 311 kts 284°
2026-05-05 09:30 -20.61316 57.39704 10419 ft 318 kts 301°
2026-05-05 09:31 -20.60069 57.37700 10621 ft 330 kts 306°
2026-05-05 09:31 -20.58705 57.35670 10794 ft 343 kts 306°
2026-05-05 09:31 -20.57293 57.33564 10982 ft 355 kts 306°
2026-05-05 09:31 -20.55845 57.31384 11186 ft 365 kts 306°
2026-05-05 09:32 -20.54359 57.29141 11364 ft 375 kts 306°
2026-05-05 09:32 -20.52839 57.26840 11553 ft 384 kts 306°
2026-05-05 09:32 -20.51277 57.24478 11700 ft 394 kts 306°
2026-05-05 09:32 -20.49698 57.22083 12107 ft 395 kts 305°
2026-05-05 09:33 -20.48105 57.19674 12360 ft 400 kts 307°
2026-05-05 09:33 -20.46321 57.17364 12608 ft 405 kts 313°
2026-05-05 09:33 -20.44438 57.15175 12962 ft 407 kts 313°
2026-05-05 09:33 -20.42504 57.12953 13302 ft 410 kts 313°
2026-05-05 09:34 -20.40555 57.10712 13561 ft 415 kts 314°
2026-05-05 09:34 -20.38583 57.08445 13881 ft 417 kts 314°
2026-05-05 09:34 -20.36615 57.06181 14240 ft 417 kts 314°
2026-05-05 09:34 -20.34639 57.03906 14528 ft 419 kts 313°
2026-05-05 09:35 -20.32661 57.01634 14946 ft 417 kts 313°
2026-05-05 09:35 -20.28680 56.97054 15453 ft 424 kts 313°
2026-05-05 09:35 -20.26670 56.94748 15729 ft 427 kts 313°
2026-05-05 09:36 -20.24649 56.92424 16013 ft 429 kts 313°
2026-05-05 09:36 -20.22617 56.90087 16441 ft 427 kts 313°
2026-05-05 09:36 -20.20599 56.87767 16827 ft 427 kts 313°
2026-05-05 09:36 -20.18606 56.85478 17197 ft 427 kts 313°
2026-05-05 09:37 -20.16583 56.83156 17538 ft 429 kts 313°
2026-05-05 09:37 -20.14535 56.80806 17747 ft 434 kts 313°
2026-05-05 09:37 -20.12483 56.78453 18111 ft 435 kts 312°
2026-05-05 09:37 -20.10414 56.76082 18344 ft 439 kts 312°
2026-05-05 09:38 -20.08337 56.73702 18737 ft 437 kts 312°
2026-05-05 09:38 -20.06266 56.71330 19038 ft 439 kts 312°
2026-05-05 09:38 -20.04185 56.68947 19375 ft 439 kts 312°
2026-05-05 09:38 -20.02098 56.66557 19678 ft 441 kts 312°
2026-05-05 09:39 -20.00005 56.64162 19938 ft 444 kts 312°
2026-05-05 09:39 -19.97899 56.61753 20261 ft 445 kts 312°
2026-05-05 09:39 -19.95788 56.59339 20523 ft 448 kts 311°
2026-05-05 09:39 -19.93685 56.56937 20837 ft 448 kts 312°
2026-05-05 09:40 -19.91552 56.54501 21180 ft 449 kts 312°
2026-05-05 09:40 -19.89418 56.52065 21501 ft 450 kts 312°
2026-05-05 09:40 -19.87275 56.49620 21835 ft 451 kts 311°
2026-05-05 09:40 -19.85157 56.47206 22041 ft 454 kts 311°
2026-05-05 09:41 -19.82993 56.44737 22365 ft 455 kts 311°
2026-05-05 09:41 -19.80827 56.42269 22655 ft 456 kts 311°
2026-05-05 09:41 -19.78660 56.39801 22937 ft 458 kts 311°
2026-05-05 09:41 -19.76480 56.37320 23253 ft 459 kts 311°
2026-05-05 09:42 -19.74298 56.34837 23532 ft 461 kts 311°
2026-05-05 09:42 -19.72105 56.32342 23789 ft 462 kts 311°
2026-05-05 09:42 -19.69906 56.29840 24014 ft 464 kts 311°
2026-05-05 09:42 -19.67702 56.27336 24245 ft 465 kts 311°
2026-05-05 09:43 -19.65519 56.24855 24476 ft 467 kts 311°
2026-05-05 09:43 -19.63296 56.22331 24709 ft 468 kts 311°
2026-05-05 09:43 -19.61068 56.19802 24951 ft 469 kts 311°
2026-05-05 09:43 -19.58836 56.17270 25189 ft 471 kts 311°
2026-05-05 09:44 -19.56591 56.14724 25417 ft 472 kts 311°
2026-05-05 09:44 -19.54342 56.12174 25646 ft 473 kts 311°
2026-05-05 09:44 -19.52088 56.09621 25868 ft 475 kts 311°
2026-05-05 09:44 -19.49828 56.07061 26101 ft 476 kts 310°
2026-05-05 09:45 -19.47563 56.04496 26317 ft 477 kts 310°
2026-05-05 09:45 -19.45288 56.01922 26551 ft 478 kts 310°
2026-05-05 09:45 -19.43008 55.99343 26761 ft 480 kts 310°
2026-05-05 09:45 -19.40749 55.96789 26973 ft 481 kts 310°
2026-05-05 09:46 -19.38454 55.94195 27188 ft 482 kts 310°
2026-05-05 09:46 -19.36158 55.91601 27379 ft 484 kts 310°
2026-05-05 09:46 -19.33856 55.89002 27600 ft 485 kts 310°
2026-05-05 09:46 -19.31544 55.86393 27807 ft 486 kts 310°
2026-05-05 09:47 -19.29227 55.83778 28008 ft 487 kts 310°
2026-05-05 09:47 -19.26904 55.81158 28209 ft 489 kts 310°
2026-05-05 09:47 -19.24576 55.78535 28391 ft 490 kts 310°
2026-05-05 09:47 -19.22237 55.75899 28591 ft 491 kts 310°
2026-05-05 09:48 -19.19896 55.73263 28791 ft 492 kts 310°
2026-05-05 09:48 -19.17554 55.70627 29061 ft 491 kts 309°
2026-05-05 09:48 -19.15217 55.67999 29356 ft 490 kts 309°
2026-05-05 09:48 -19.12887 55.65378 29638 ft 489 kts 309°
2026-05-05 09:49 -19.10586 55.62791 29915 ft 487 kts 309°
2026-05-05 09:49 -19.08260 55.60177 30181 ft 486 kts 309°
2026-05-05 09:49 -19.05946 55.57579 30419 ft 485 kts 309°
2026-05-05 09:49 -19.03687 55.54943 30667 ft 481 kts 305°
2026-05-05 09:50 -19.01658 55.52153 30911 ft 477 kts 303°
2026-05-05 09:50 -18.99718 55.49315 31147 ft 475 kts 302°
2026-05-05 09:50 -18.97825 55.46464 31378 ft 473 kts 301°
2026-05-05 09:50 -18.95947 55.43609 31607 ft 472 kts 301°
2026-05-05 09:51 -18.94076 55.40766 31830 ft 470 kts 301°
2026-05-05 09:51 -18.92205 55.37939 31995 ft 470 kts 301°
2026-05-05 09:51 -18.88464 55.32325 32020 ft 463 kts 302°
2026-05-05 09:52 -18.84753 55.26787 32022 ft 461 kts 302°
2026-05-05 09:52 -18.81042 55.21254 32020 ft 462 kts 302°
2026-05-05 09:53 -18.77349 55.15752 32020 ft 462 kts 302°
2026-05-05 09:53 -18.73632 55.10220 32021 ft 462 kts 302°
2026-05-05 09:54 -18.69908 55.04682 32017 ft 463 kts 302°
2026-05-05 09:54 -18.66178 54.99140 32018 ft 463 kts 302°
2026-05-05 09:55 -18.62471 54.93636 32020 ft 463 kts 302°
2026-05-05 09:55 -18.58738 54.88100 32021 ft 463 kts 302°
2026-05-05 09:56 -18.55003 54.82565 32022 ft 463 kts 302°
2026-05-05 09:56 -18.51262 54.77025 32019 ft 463 kts 302°
2026-05-05 09:57 -18.47515 54.71484 32019 ft 463 kts 303°
2026-05-05 09:57 -18.43768 54.65952 32019 ft 463 kts 303°
2026-05-05 09:58 -18.40024 54.60426 32019 ft 463 kts 303°
2026-05-05 09:58 -18.36301 54.54937 32019 ft 463 kts 303°
2026-05-05 09:59 -18.32549 54.49410 32015 ft 463 kts 303°
2026-05-05 09:59 -18.28796 54.43886 32013 ft 464 kts 303°
2026-05-05 10:00 -18.25029 54.38347 32024 ft 464 kts 303°
2026-05-05 10:00 -18.21267 54.32819 32009 ft 464 kts 303°
2026-05-05 10:01 -18.17531 54.27334 32024 ft 465 kts 303°
2026-05-05 10:01 -18.13764 54.21809 32008 ft 465 kts 303°
2026-05-05 10:02 -18.09993 54.16283 32027 ft 465 kts 303°
2026-05-05 10:02 -18.06219 54.10754 32006 ft 465 kts 303°
2026-05-05 10:03 -18.02449 54.05230 32024 ft 465 kts 303°
2026-05-05 10:03 -17.98680 53.99711 32010 ft 465 kts 303°
2026-05-05 10:04 -17.94928 53.94223 32022 ft 465 kts 303°
2026-05-05 10:04 -17.91146 53.88696 32022 ft 466 kts 303°
2026-05-05 10:05 -17.87356 53.83163 32016 ft 466 kts 303°
2026-05-05 10:05 -17.83568 53.77636 32015 ft 466 kts 303°
2026-05-05 10:06 -17.79777 53.72111 32010 ft 467 kts 303°
2026-05-05 10:06 -17.75981 53.66582 32012 ft 467 kts 303°
2026-05-05 10:07 -17.72182 53.61053 32012 ft 467 kts 303°
2026-05-05 10:07 -17.68403 53.55559 32014 ft 467 kts 303°
2026-05-05 10:08 -17.64597 53.50031 32013 ft 467 kts 303°
2026-05-05 10:08 -17.60792 53.44507 32012 ft 467 kts 303°
2026-05-05 10:09 -17.56985 53.38986 32013 ft 467 kts 303°
2026-05-05 10:09 -17.53176 53.33466 32012 ft 467 kts 303°
2026-05-05 10:10 -17.49370 53.27954 32014 ft 467 kts 303°
2026-05-05 10:10 -17.45558 53.22439 32013 ft 467 kts 303°
2026-05-05 10:11 -17.41769 53.16961 32013 ft 467 kts 303°
2026-05-05 10:11 -17.37951 53.11447 32012 ft 468 kts 304°
2026-05-05 10:12 -17.34129 53.05930 32014 ft 468 kts 304°
2026-05-05 10:12 -17.30956 53.01355 32013 ft 468 kts 304°
2026-05-05 10:13 -17.27130 52.95840 32011 ft 468 kts 304°
2026-05-05 10:13 -17.22679 52.89431 32010 ft 468 kts 304°
2026-05-05 10:14 -17.19471 52.84816 32011 ft 468 kts 304°
2026-05-05 10:14 -17.15663 52.79341 32009 ft 468 kts 304°
2026-05-05 10:15 -17.11833 52.73839 32011 ft 468 kts 304°
2026-05-05 10:15 -17.07990 52.68323 32009 ft 469 kts 304°
2026-05-05 10:16 -17.04139 52.62800 32009 ft 470 kts 304°
2026-05-05 10:16 -17.00289 52.57282 32009 ft 470 kts 304°
2026-05-05 10:17 -16.96435 52.51764 32005 ft 470 kts 304°
2026-05-05 10:17 -16.92577 52.46243 32009 ft 470 kts 304°
2026-05-05 10:18 -16.88745 52.40766 32009 ft 470 kts 304°
2026-05-05 10:18 -16.84883 52.35249 32009 ft 470 kts 304°
2026-05-05 10:19 -16.81019 52.29734 32009 ft 470 kts 304°
2026-05-05 10:19 -16.77158 52.24230 32009 ft 470 kts 304°
2026-05-05 10:20 -16.73287 52.18715 32009 ft 471 kts 304°
2026-05-05 10:20 -16.69432 52.13228 32002 ft 471 kts 304°
2026-05-05 10:21 -16.65553 52.07710 32007 ft 471 kts 304°
2026-05-05 10:21 -16.61669 52.02190 32007 ft 472 kts 304°
2026-05-05 10:22 -16.57779 51.96666 32006 ft 472 kts 304°
2026-05-05 10:22 -16.53888 51.91144 32007 ft 472 kts 304°
2026-05-05 10:23 -16.49995 51.85624 32007 ft 472 kts 304°
2026-05-05 10:23 -16.46125 51.80142 32004 ft 472 kts 304°
2026-05-05 10:24 -16.42226 51.74621 32007 ft 473 kts 304°
2026-05-05 10:24 -16.38329 51.69108 32007 ft 473 kts 304°
2026-05-05 10:25 -16.34430 51.63597 32006 ft 473 kts 304°
2026-05-05 10:25 -16.30528 51.58084 32007 ft 473 kts 304°
2026-05-05 10:26 -16.26641 51.52599 32006 ft 474 kts 304°
2026-05-05 10:26 -16.22723 51.47072 32006 ft 474 kts 304°
2026-05-05 10:27 -16.18804 51.41550 32005 ft 474 kts 304°
2026-05-05 10:27 -16.14883 51.36028 32012 ft 474 kts 304°
2026-05-05 10:28 -16.10963 51.30513 32009 ft 475 kts 304°
2026-05-05 10:28 -16.07032 51.24986 32010 ft 475 kts 304°
2026-05-05 10:29 -16.03096 51.19456 32010 ft 475 kts 304°
2026-05-05 10:29 -15.99190 51.13973 32010 ft 475 kts 304°
2026-05-05 10:30 -15.95256 51.08454 32009 ft 475 kts 304°
2026-05-05 10:30 -15.91321 51.02938 32010 ft 475 kts 304°
2026-05-05 10:31 -15.87384 50.97423 32010 ft 475 kts 304°
2026-05-05 10:31 -15.83442 50.91905 32009 ft 475 kts 304°
2026-05-05 10:32 -15.79497 50.86388 32008 ft 475 kts 304°
2026-05-05 10:32 -15.75549 50.80869 32010 ft 476 kts 304°
2026-05-05 10:33 -15.71598 50.75351 32012 ft 476 kts 304°
2026-05-05 10:33 -15.67667 50.69865 32012 ft 476 kts 304°
2026-05-05 10:34 -15.63710 50.64347 32008 ft 476 kts 304°
2026-05-05 10:34 -15.59742 50.58816 32012 ft 477 kts 304°
2026-05-05 10:35 -15.55775 50.53293 32012 ft 477 kts 304°
2026-05-05 10:35 -15.51832 50.47806 32009 ft 477 kts 304°
2026-05-05 10:36 -15.47861 50.42284 32015 ft 477 kts 304°
2026-05-05 10:36 -15.43888 50.36763 32020 ft 478 kts 304°
2026-05-05 10:37 -15.39907 50.31235 32023 ft 478 kts 304°
2026-05-05 10:37 -15.35928 50.25713 32020 ft 478 kts 304°
2026-05-05 10:38 -15.31947 50.20195 32021 ft 478 kts 304°
2026-05-05 10:38 -15.27989 50.14712 32025 ft 478 kts 304°
2026-05-05 10:39 -15.23998 50.09187 32026 ft 479 kts 304°
2026-05-05 10:39 -15.20009 50.03667 32023 ft 479 kts 304°
2026-05-05 10:40 -15.16009 49.98136 32022 ft 479 kts 304°
2026-05-05 10:40 -15.12039 49.92650 32031 ft 479 kts 304°
2026-05-05 10:41 -15.08041 49.87132 32036 ft 479 kts 304°
2026-05-05 10:41 -15.04041 49.81615 32033 ft 479 kts 304°
2026-05-05 10:42 -14.98035 49.73341 32033 ft 479 kts 304°
2026-05-05 10:43 -14.94028 49.67820 32044 ft 480 kts 304°
2026-05-05 10:43 -14.90015 49.62294 32034 ft 480 kts 304°
2026-05-05 10:44 -14.86002 49.56774 32041 ft 480 kts 304°
2026-05-05 10:44 -14.82015 49.51293 32041 ft 480 kts 304°
2026-05-05 10:45 -14.78002 49.45780 32046 ft 480 kts 304°
2026-05-05 10:45 -14.73983 49.40265 32037 ft 480 kts 304°
2026-05-05 10:46 -14.69961 49.34749 32036 ft 479 kts 304°
2026-05-05 10:46 -14.65946 49.29246 32038 ft 479 kts 305°
2026-05-05 10:47 -14.61930 49.23746 32034 ft 480 kts 305°
2026-05-05 10:47 -14.57929 49.18270 32034 ft 480 kts 305°
2026-05-05 10:48 -14.53903 49.12762 32028 ft 480 kts 305°
2026-05-05 10:48 -14.49880 49.07265 32034 ft 480 kts 305°
2026-05-05 10:49 -14.45861 49.01775 32024 ft 479 kts 305°
2026-05-05 10:49 -14.41837 48.96281 32029 ft 479 kts 305°
2026-05-05 10:50 -14.37837 48.90825 32021 ft 479 kts 305°
2026-05-05 10:50 -14.33815 48.85342 32021 ft 479 kts 305°
2026-05-05 10:51 -14.29793 48.79864 32013 ft 479 kts 305°
2026-05-05 10:51 -14.25769 48.74385 32009 ft 479 kts 305°
2026-05-05 10:52 -14.21741 48.68905 31999 ft 479 kts 305°
2026-05-05 10:52 -14.17716 48.63433 31989 ft 479 kts 305°
2026-05-05 10:53 -14.13690 48.57963 31979 ft 479 kts 305°
2026-05-05 10:53 -14.09663 48.52496 31971 ft 479 kts 305°
2026-05-05 10:54 -14.05655 48.47058 31961 ft 479 kts 305°
2026-05-05 10:54 -14.01622 48.41589 31961 ft 479 kts 305°
2026-05-05 10:55 -13.97585 48.36119 31945 ft 479 kts 305°
2026-05-05 10:55 -13.93549 48.30654 31950 ft 479 kts 305°
2026-05-05 10:56 -13.89539 48.25226 31949 ft 479 kts 305°
2026-05-05 10:56 -13.85504 48.19769 31943 ft 479 kts 305°
2026-05-05 10:57 -13.81462 48.14309 31945 ft 479 kts 305°
2026-05-05 10:57 -13.77420 48.08849 31941 ft 479 kts 305°
2026-05-05 10:58 -13.73379 48.03395 31939 ft 479 kts 305°
2026-05-05 10:58 -13.69360 47.97974 31939 ft 479 kts 306°
2026-05-05 10:59 -13.65316 47.92523 31938 ft 479 kts 306°
2026-05-05 10:59 -13.61271 47.87075 31940 ft 479 kts 306°
2026-05-05 11:00 -13.57222 47.81625 31943 ft 479 kts 306°
2026-05-05 11:00 -13.53161 47.76162 31944 ft 479 kts 306°
2026-05-05 11:01 -13.49111 47.70718 31945 ft 480 kts 306°
2026-05-05 11:01 -13.45058 47.65272 31944 ft 480 kts 306°
2026-05-05 11:02 -13.41025 47.59859 31941 ft 480 kts 306°
2026-05-05 11:02 -13.36966 47.54412 31944 ft 480 kts 306°
2026-05-05 11:03 -13.33592 47.49888 31947 ft 480 kts 306°
2026-05-05 11:03 -13.29529 47.44442 31947 ft 480 kts 306°
2026-05-05 11:04 -13.25472 47.39009 31944 ft 480 kts 306°
2026-05-05 11:04 -13.21411 47.33573 31945 ft 480 kts 306°
2026-05-05 11:05 -13.17344 47.28132 31949 ft 480 kts 306°
2026-05-05 11:05 -13.12624 47.21822 31947 ft 480 kts 306°
2026-05-05 11:06 -13.09219 47.17273 31939 ft 480 kts 306°
2026-05-05 11:06 -13.05154 47.11845 31945 ft 479 kts 306°
2026-05-05 11:07 -13.01113 47.06452 31947 ft 479 kts 306°
2026-05-05 11:07 -12.97049 47.01031 31947 ft 479 kts 306°
2026-05-05 11:08 -12.92983 46.95612 31948 ft 479 kts 306°
2026-05-05 11:08 -12.88911 46.90188 31946 ft 479 kts 306°
2026-05-05 11:09 -12.84838 46.84766 31945 ft 480 kts 306°
2026-05-05 11:09 -12.80760 46.79341 31948 ft 480 kts 306°
2026-05-05 11:10 -12.76710 46.73955 31947 ft 480 kts 306°
2026-05-05 11:10 -12.72630 46.68533 31947 ft 480 kts 306°
2026-05-05 11:11 -12.68552 46.63117 31948 ft 480 kts 306°
2026-05-05 11:11 -12.64474 46.57704 31945 ft 480 kts 306°
2026-05-05 11:12 -12.60391 46.52287 31942 ft 480 kts 306°
2026-05-05 11:12 -12.56306 46.46871 31944 ft 480 kts 306°
2026-05-05 11:13 -12.52220 46.41458 31944 ft 480 kts 306°
2026-05-05 11:13 -12.48128 46.36039 31946 ft 481 kts 306°
2026-05-05 11:14 -12.44057 46.30651 31945 ft 481 kts 306°
2026-05-05 11:14 -12.39957 46.25228 31944 ft 481 kts 306°
2026-05-05 11:15 -12.35867 46.19822 31948 ft 481 kts 306°
2026-05-05 11:15 -12.31769 46.14408 31950 ft 481 kts 306°
2026-05-05 11:16 -12.27693 46.09033 31946 ft 481 kts 306°
2026-05-05 11:16 -12.23596 46.03623 31947 ft 481 kts 306°
2026-05-05 11:17 -12.19497 45.98214 31949 ft 481 kts 306°
2026-05-05 11:17 -12.15397 45.92810 31947 ft 481 kts 307°
2026-05-05 11:18 -12.11292 45.87402 31945 ft 481 kts 307°
2026-05-05 11:18 -12.07208 45.82025 31950 ft 481 kts 307°
2026-05-05 11:19 -12.03093 45.76611 31947 ft 481 kts 307°
2026-05-05 11:19 -11.98980 45.71203 31947 ft 481 kts 307°
2026-05-05 11:20 -11.94869 45.65800 31946 ft 481 kts 307°
2026-05-05 11:20 -11.90757 45.60398 31946 ft 481 kts 307°
2026-05-05 11:21 -11.86646 45.55001 31947 ft 481 kts 307°
2026-05-05 11:21 -11.82559 45.49638 31947 ft 481 kts 307°
2026-05-05 11:22 -11.78445 45.44243 31947 ft 482 kts 307°
2026-05-05 11:22 -11.74329 45.38848 31947 ft 482 kts 307°
2026-05-05 11:23 -11.70207 45.33449 31945 ft 482 kts 307°
2026-05-05 11:23 -11.66109 45.28083 31947 ft 481 kts 307°
2026-05-05 11:24 -11.61963 45.22657 31947 ft 482 kts 307°
2026-05-05 11:24 -11.57869 45.17303 31946 ft 482 kts 307°
2026-05-05 11:25 -11.53741 45.11907 31946 ft 481 kts 307°
2026-05-05 11:25 -11.49638 45.06547 31947 ft 481 kts 307°
2026-05-05 11:26 -11.45510 45.01156 31945 ft 482 kts 307°
2026-05-05 11:26 -11.41375 44.95759 31945 ft 482 kts 307°
2026-05-05 11:27 -11.37245 44.90373 31943 ft 482 kts 307°
2026-05-05 11:27 -11.33114 44.84988 31944 ft 482 kts 307°
2026-05-05 11:28 -11.29007 44.79636 31947 ft 482 kts 307°
2026-05-05 11:28 -11.24879 44.74260 31948 ft 482 kts 307°
2026-05-05 11:29 -11.20743 44.68876 31944 ft 483 kts 307°
2026-05-05 11:29 -11.16600 44.63486 31944 ft 482 kts 307°
2026-05-05 11:30 -11.12456 44.58098 31947 ft 483 kts 307°
2026-05-05 11:30 -11.08315 44.52715 31944 ft 482 kts 307°
2026-05-05 11:31 -11.04172 44.47334 31941 ft 482 kts 307°
2026-05-05 11:31 -11.00032 44.41959 31942 ft 482 kts 307°
2026-05-05 11:32 -10.95892 44.36587 31947 ft 482 kts 307°
2026-05-05 11:32 -10.91779 44.31254 31947 ft 482 kts 307°
2026-05-05 11:33 -10.87635 44.25884 31947 ft 482 kts 307°
2026-05-05 11:33 -10.83492 44.20510 31947 ft 482 kts 307°
2026-05-05 11:34 -10.79352 44.15144 31947 ft 482 kts 307°
2026-05-05 11:34 -10.75206 44.09776 31946 ft 483 kts 307°
2026-05-05 11:35 -10.71050 44.04397 31941 ft 483 kts 307°
2026-05-05 11:35 -10.66924 43.99060 31942 ft 482 kts 307°
2026-05-05 11:36 -10.62767 43.93685 31945 ft 482 kts 307°
2026-05-05 11:36 -10.58616 43.88321 31944 ft 483 kts 307°
2026-05-05 11:37 -10.54451 43.82942 31939 ft 484 kts 307°
2026-05-05 11:37 -10.50311 43.77596 31941 ft 483 kts 308°
2026-05-05 11:38 -10.46142 43.72217 31946 ft 483 kts 307°
2026-05-05 11:38 -10.41982 43.66852 31944 ft 483 kts 308°
2026-05-05 11:39 -10.37816 43.61485 31940 ft 484 kts 308°
2026-05-05 11:39 -10.33642 43.56105 31945 ft 485 kts 308°
2026-05-05 11:40 -10.29486 43.50745 31945 ft 486 kts 308°
2026-05-05 11:40 -10.25302 43.45353 31943 ft 486 kts 308°
2026-05-05 11:41 -10.21120 43.39968 31944 ft 487 kts 308°
2026-05-05 11:41 -10.16885 43.34517 31941 ft 494 kts 308°
2026-05-05 11:42 -10.12615 43.29025 31945 ft 496 kts 308°
2026-05-05 11:42 -10.08335 43.23524 31944 ft 496 kts 308°
2026-05-05 11:43 -10.04052 43.18020 31943 ft 496 kts 308°
2026-05-05 11:43 -9.99775 43.12527 31941 ft 496 kts 308°
2026-05-05 11:44 -9.95526 43.07071 31944 ft 496 kts 308°
2026-05-05 11:44 -9.91244 43.01577 31942 ft 498 kts 308°
2026-05-05 11:45 -9.86942 42.96059 31938 ft 498 kts 308°
2026-05-05 11:45 -9.82648 42.90554 31938 ft 498 kts 308°
2026-05-05 11:46 -9.78343 42.85038 31941 ft 499 kts 308°
2026-05-05 11:46 -9.74032 42.79516 31944 ft 499 kts 308°
2026-05-05 11:47 -9.69726 42.74002 31938 ft 498 kts 309°
2026-05-05 11:47 -9.65410 42.68481 31938 ft 501 kts 309°
2026-05-05 11:48 -9.58957 42.60227 31941 ft 499 kts 308°
2026-05-05 11:48 -9.54650 42.54723 31941 ft 498 kts 309°
2026-05-05 11:49 -9.50334 42.49208 31936 ft 500 kts 309°
2026-05-05 11:49 -9.46029 42.43711 31938 ft 500 kts 309°
2026-05-05 11:50 -9.41699 42.38185 31939 ft 502 kts 309°
2026-05-05 11:50 -9.37350 42.32636 31938 ft 501 kts 309°
2026-05-05 11:51 -9.33008 42.27098 31938 ft 503 kts 309°
2026-05-05 11:51 -9.29390 42.22485 31938 ft 501 kts 309°
2026-05-05 11:52 -9.25053 42.16959 31939 ft 502 kts 309°
2026-05-05 11:52 -9.20706 42.11423 31936 ft 502 kts 309°
2026-05-05 11:53 -9.16362 42.05892 31938 ft 500 kts 309°
2026-05-05 11:53 -9.12056 42.00413 31938 ft 501 kts 309°
2026-05-05 11:54 -9.07714 41.94889 31939 ft 502 kts 309°
2026-05-05 11:54 -9.03364 41.89359 31939 ft 501 kts 309°
2026-05-05 11:55 -8.99013 41.83830 31933 ft 503 kts 309°
2026-05-05 11:55 -8.94639 41.78273 31933 ft 504 kts 309°
2026-05-05 11:56 -8.90274 41.72729 31936 ft 503 kts 309°
2026-05-05 11:56 -8.85949 41.67239 31936 ft 502 kts 309°
2026-05-05 11:57 -8.81583 41.61701 31933 ft 503 kts 309°
2026-05-05 11:57 -8.77226 41.56175 31936 ft 502 kts 309°
2026-05-05 11:58 -8.72878 41.50663 31935 ft 501 kts 309°
2026-05-05 11:58 -8.68535 41.45200 31936 ft 501 kts 310°
2026-05-05 11:59 -8.64114 41.39740 31933 ft 502 kts 310°
2026-05-05 11:59 -8.59692 41.34287 31930 ft 501 kts 310°
2026-05-05 12:00 -8.55277 41.28829 31939 ft 502 kts 310°
2026-05-05 12:00 -8.50855 41.23356 31931 ft 502 kts 310°
2026-05-05 12:01 -8.46436 41.17889 31930 ft 502 kts 310°
2026-05-05 12:01 -8.42047 41.12461 31930 ft 502 kts 310°
2026-05-05 12:02 -8.37629 41.07000 31930 ft 501 kts 310°
2026-05-05 12:02 -8.33211 41.01541 31931 ft 501 kts 310°
2026-05-05 12:03 -8.28789 40.96079 31931 ft 502 kts 310°
2026-05-05 12:03 -8.24364 40.90616 31930 ft 503 kts 310°
2026-05-05 12:04 -8.19964 40.85186 31933 ft 502 kts 310°
2026-05-05 12:04 -8.15589 40.79674 31930 ft 503 kts 308°
2026-05-05 12:05 -8.11347 40.74062 31931 ft 503 kts 308°
2026-05-05 12:05 -8.07114 40.68451 31930 ft 502 kts 308°
2026-05-05 12:06 -8.02873 40.62877 31929 ft 503 kts 308°
2026-05-05 12:06 -7.98602 40.57289 31931 ft 503 kts 308°
2026-05-05 12:07 -7.94303 40.51671 31928 ft 503 kts 308°
2026-05-05 12:07 -7.90023 40.46143 31927 ft 502 kts 309°
2026-05-05 12:08 -7.85638 40.40655 31930 ft 502 kts 310°
2026-05-05 12:08 -7.81247 40.35170 31929 ft 502 kts 309°
2026-05-05 12:09 -7.76869 40.29675 31928 ft 502 kts 309°
2026-05-05 12:09 -7.72501 40.24181 31924 ft 502 kts 309°
2026-05-05 12:10 -7.68137 40.18691 31930 ft 502 kts 309°
2026-05-05 12:10 -7.63800 40.13239 31928 ft 502 kts 309°
2026-05-05 12:11 -7.59432 40.07750 31927 ft 501 kts 309°
2026-05-05 12:11 -7.55066 40.02264 31925 ft 501 kts 309°
2026-05-05 12:12 -7.50698 39.96780 31922 ft 501 kts 309°
2026-05-05 12:12 -7.46339 39.91308 31931 ft 501 kts 309°
2026-05-05 12:13 -7.41979 39.85836 31928 ft 500 kts 309°
2026-05-05 12:13 -7.37620 39.80369 31935 ft 501 kts 309°
2026-05-05 12:14 -7.33252 39.74892 31939 ft 500 kts 309°
2026-05-05 12:14 -7.28921 39.69463 31938 ft 500 kts 309°
2026-05-05 12:15 -7.24555 39.63991 31944 ft 501 kts 309°
2026-05-05 12:15 -7.20183 39.58515 31944 ft 501 kts 309°
2026-05-05 12:16 -7.15813 39.53043 31950 ft 501 kts 309°
2026-05-05 12:16 -7.11444 39.47574 31951 ft 501 kts 310°
2026-05-05 12:17 -7.07075 39.42107 31952 ft 501 kts 309°
2026-05-05 12:17 -7.02702 39.36636 31960 ft 501 kts 310°
2026-05-05 12:18 -6.98322 39.31159 31963 ft 502 kts 310°
2026-05-05 12:18 -6.93974 39.25723 31965 ft 502 kts 310°
2026-05-05 12:19 -6.89577 39.20262 31961 ft 501 kts 312°
2026-05-05 12:19 -6.84727 39.15231 31965 ft 500 kts 316°
2026-05-05 12:20 -6.79762 39.10326 31965 ft 500 kts 317°
2026-05-05 12:20 -6.74766 39.05433 31963 ft 501 kts 317°
2026-05-05 12:21 -6.69769 39.00532 31959 ft 502 kts 317°
2026-05-05 12:21 -6.64772 38.95621 31955 ft 502 kts 316°
2026-05-05 12:22 -6.59783 38.90716 31956 ft 502 kts 316°
2026-05-05 12:22 -6.54793 38.85811 31956 ft 502 kts 317°
2026-05-05 12:23 -6.49829 38.80934 31950 ft 502 kts 317°
2026-05-05 12:23 -6.44832 38.76026 31949 ft 502 kts 317°
2026-05-05 12:24 -6.39828 38.71114 31952 ft 502 kts 317°
2026-05-05 12:24 -6.34829 38.66207 31952 ft 502 kts 317°
2026-05-05 12:25 -6.29827 38.61298 31955 ft 502 kts 317°
2026-05-05 12:25 -6.24829 38.56394 31955 ft 502 kts 317°
2026-05-05 12:26 -6.19833 38.51496 31953 ft 502 kts 317°
2026-05-05 12:26 -6.14865 38.46629 31958 ft 502 kts 317°
2026-05-05 12:27 -6.09870 38.41724 31954 ft 502 kts 317°
2026-05-05 12:27 -6.04877 38.36816 31966 ft 502 kts 317°
2026-05-05 12:28 -5.99883 38.31911 31962 ft 502 kts 317°
2026-05-05 12:28 -5.94885 38.27008 31968 ft 502 kts 317°
2026-05-05 12:29 -5.89887 38.22106 31972 ft 502 kts 317°
2026-05-05 12:29 -5.84914 38.17229 31983 ft 502 kts 317°
2026-05-05 12:30 -5.79909 38.12322 31983 ft 503 kts 317°
2026-05-05 12:30 -5.74901 38.07414 31994 ft 503 kts 317°
2026-05-05 12:31 -5.69894 38.02507 31990 ft 503 kts 317°
2026-05-05 12:31 -5.64894 37.97585 32001 ft 503 kts 316°
2026-05-05 12:32 -5.59915 37.92642 32003 ft 503 kts 316°
2026-05-05 12:32 -5.54932 37.87697 32012 ft 503 kts 316°
2026-05-05 12:33 -5.49977 37.82788 32012 ft 504 kts 316°
2026-05-05 12:33 -5.44989 37.77852 32025 ft 504 kts 316°
2026-05-05 12:34 -5.39997 37.72912 32026 ft 504 kts 316°
2026-05-05 12:34 -5.34996 37.67964 32037 ft 505 kts 316°
2026-05-05 12:35 -5.29989 37.63013 32037 ft 504 kts 316°
2026-05-05 12:35 -5.25023 37.58103 32045 ft 505 kts 316°
2026-05-05 12:36 -5.20017 37.53155 32044 ft 505 kts 316°
2026-05-05 12:36 -5.15006 37.48203 32054 ft 505 kts 316°
2026-05-05 12:37 -5.10002 37.43258 32053 ft 505 kts 316°
2026-05-05 12:37 -5.04995 37.38312 32053 ft 505 kts 316°
2026-05-05 12:38 -4.99989 37.33368 32053 ft 505 kts 316°
2026-05-05 12:38 -4.95827 37.29258 32059 ft 505 kts 316°
2026-05-05 12:39 -4.90003 37.23509 32059 ft 505 kts 316°
2026-05-05 12:39 -4.84992 37.18563 32060 ft 505 kts 316°
2026-05-05 12:40 -4.80834 37.14461 32061 ft 504 kts 316°
2026-05-05 12:40 -4.75822 37.09516 32065 ft 505 kts 316°
2026-05-05 12:41 -4.70807 37.04570 32064 ft 505 kts 316°
2026-05-05 12:41 -4.65784 36.99617 32066 ft 506 kts 316°
2026-05-05 12:42 -4.60774 36.94677 32070 ft 504 kts 316°
2026-05-05 12:42 -4.55814 36.89788 32071 ft 502 kts 316°
2026-05-05 12:43 -4.50843 36.84889 32078 ft 501 kts 316°
2026-05-05 12:43 -4.45876 36.79986 32081 ft 501 kts 316°
2026-05-05 12:44 -4.40917 36.75073 32081 ft 501 kts 316°
2026-05-05 12:44 -4.35960 36.70163 32093 ft 500 kts 316°
2026-05-05 12:45 -4.31005 36.65260 32089 ft 500 kts 316°
2026-05-05 12:45 -4.26046 36.60355 32121 ft 500 kts 316°
2026-05-05 12:46 -4.21121 36.55485 32121 ft 500 kts 316°
2026-05-05 12:46 -4.16157 36.50578 32158 ft 500 kts 316°
2026-05-05 12:47 -4.11198 36.45675 32156 ft 500 kts 316°
2026-05-05 12:47 -4.06278 36.40813 32173 ft 500 kts 316°
2026-05-05 12:48 -4.01330 36.35923 32173 ft 500 kts 316°
2026-05-05 12:48 -3.96378 36.31031 32173 ft 500 kts 316°
2026-05-05 12:49 -3.91352 36.26225 32170 ft 499 kts 319°
2026-05-05 12:49 -3.86150 36.21610 32168 ft 499 kts 319°
2026-05-05 12:50 -3.80945 36.17008 32167 ft 499 kts 319°
2026-05-05 12:50 -3.75801 36.12408 32168 ft 499 kts 319°
2026-05-05 12:51 -3.70635 36.07761 32166 ft 499 kts 319°
2026-05-05 12:51 -3.65483 36.03078 32168 ft 500 kts 317°
2026-05-05 12:52 -3.60498 35.98213 32169 ft 500 kts 316°
2026-05-05 12:52 -3.55576 35.93339 32175 ft 500 kts 316°
2026-05-05 12:53 -3.50597 35.88466 32176 ft 500 kts 316°
2026-05-05 12:53 -3.45600 35.83611 32191 ft 501 kts 316°
2026-05-05 12:54 -3.38096 35.76325 32192 ft 500 kts 316°
2026-05-05 12:55 -3.33101 35.71473 32207 ft 501 kts 317°
2026-05-05 12:55 -3.28098 35.66611 32209 ft 501 kts 317°
2026-05-05 12:56 -3.23124 35.61779 32205 ft 502 kts 317°
2026-05-05 12:56 -3.18100 35.56901 32207 ft 502 kts 317°
2026-05-05 12:57 -3.13089 35.52034 32196 ft 501 kts 316°
2026-05-05 12:57 -3.08087 35.47177 32191 ft 500 kts 316°
2026-05-05 12:58 -3.03097 35.42332 32180 ft 500 kts 316°
2026-05-05 12:58 -2.98100 35.37483 32169 ft 500 kts 316°
2026-05-05 12:59 -2.93134 35.32662 32159 ft 500 kts 316°
2026-05-05 12:59 -2.88139 35.27814 32160 ft 500 kts 316°
2026-05-05 13:00 -2.80640 35.20537 32137 ft 501 kts 317°
2026-05-05 13:01 -2.70620 35.10818 32116 ft 502 kts 316°
2026-05-05 13:01 -2.65612 35.05960 32113 ft 501 kts 316°
2026-05-05 13:02 -2.60637 35.01134 32091 ft 501 kts 316°
2026-05-05 13:02 -2.55633 34.96282 32091 ft 501 kts 316°
2026-05-05 13:03 -2.50631 34.91432 32085 ft 501 kts 316°
2026-05-05 13:03 -2.48128 34.89006 32252 ft 500 kts 316°
2026-05-05 13:03 -2.45635 34.86589 32537 ft 498 kts 316°
2026-05-05 13:04 -2.43156 34.84186 32800 ft 496 kts 316°
2026-05-05 13:04 -2.40677 34.81782 33032 ft 495 kts 316°
2026-05-05 13:04 -2.38206 34.79387 33252 ft 494 kts 316°
2026-05-05 13:04 -2.35738 34.76995 33486 ft 493 kts 316°
2026-05-05 13:05 -2.33284 34.74617 33717 ft 491 kts 316°
2026-05-05 13:05 -2.30828 34.72237 33904 ft 491 kts 317°
2026-05-05 13:05 -2.25936 34.67496 34018 ft 495 kts 317°
2026-05-05 13:06 -2.20985 34.62699 34013 ft 494 kts 317°
2026-05-05 13:06 -2.16056 34.57922 34013 ft 492 kts 317°
2026-05-05 13:07 -2.11158 34.53177 34001 ft 492 kts 317°
2026-05-05 13:07 -2.06239 34.48413 33996 ft 492 kts 317°
2026-05-05 13:08 -2.01316 34.43644 33986 ft 492 kts 317°
2026-05-05 13:08 -1.96392 34.38881 33985 ft 492 kts 317°
2026-05-05 13:09 -1.91465 34.34116 33984 ft 492 kts 317°
2026-05-05 13:09 -1.86573 34.29385 33969 ft 492 kts 317°
2026-05-05 13:10 -1.81652 34.24626 33970 ft 492 kts 317°
2026-05-05 13:10 -1.76728 34.19869 33955 ft 492 kts 317°
2026-05-05 13:11 -1.71805 34.15101 33955 ft 493 kts 317°
2026-05-05 13:11 -1.66878 34.10333 33964 ft 493 kts 317°
2026-05-05 13:12 -1.61952 34.05567 33976 ft 493 kts 317°
2026-05-05 13:12 -1.57023 34.00802 33999 ft 493 kts 317°
2026-05-05 13:13 -1.52079 33.96045 34021 ft 494 kts 317°
2026-05-05 13:13 -1.47155 33.91312 34038 ft 494 kts 317°
2026-05-05 13:14 -1.42172 33.86519 34043 ft 494 kts 317°
2026-05-05 13:14 -1.39734 33.84165 33936 ft 494 kts 317°
2026-05-05 13:14 -1.37242 33.81736 33923 ft 494 kts 317°
2026-05-05 13:15 -1.32361 33.76965 33925 ft 494 kts 317°
2026-05-05 13:15 -1.27433 33.72169 33926 ft 494 kts 317°
2026-05-05 13:16 -1.22489 33.67388 33920 ft 495 kts 317°
2026-05-05 13:16 -1.17534 33.62598 33918 ft 495 kts 317°
2026-05-05 13:17 -1.12610 33.57834 33905 ft 495 kts 317°
2026-05-05 13:17 -1.07655 33.53038 33907 ft 495 kts 317°
2026-05-05 13:18 -1.02703 33.48244 33905 ft 495 kts 317°
2026-05-05 13:18 -0.97779 33.43482 33906 ft 495 kts 317°
2026-05-05 13:19 -0.92816 33.38703 33904 ft 496 kts 317°
2026-05-05 13:19 -0.87846 33.33921 33909 ft 496 kts 317°
2026-05-05 13:20 -0.82873 33.29134 33909 ft 496 kts 317°
2026-05-05 13:20 -0.77904 33.24349 33907 ft 496 kts 317°
2026-05-05 13:21 -0.72939 33.19568 33913 ft 496 kts 317°
2026-05-05 13:21 -0.67970 33.14774 33908 ft 496 kts 317°
2026-05-05 13:22 -0.63015 33.09971 33908 ft 496 kts 317°
2026-05-05 13:22 -0.58086 33.05191 33908 ft 497 kts 317°
2026-05-05 13:23 -0.53120 33.00380 33914 ft 497 kts 317°
2026-05-05 13:23 -0.48155 32.95572 33915 ft 497 kts 317°
2026-05-05 13:24 -0.43186 32.90760 33915 ft 497 kts 317°
2026-05-05 13:24 -0.38225 32.85955 33918 ft 496 kts 317°
2026-05-05 13:25 -0.33268 32.81155 33920 ft 495 kts 317°
2026-05-05 13:25 -0.28355 32.76397 33919 ft 495 kts 317°
2026-05-05 13:26 -0.23401 32.71601 33917 ft 495 kts 317°
2026-05-05 13:26 -0.18447 32.66804 33920 ft 495 kts 317°
2026-05-05 13:27 -0.13497 32.62010 33917 ft 495 kts 317°
2026-05-05 13:27 -0.08550 32.57220 33920 ft 495 kts 317°
2026-05-05 13:28 -0.03610 32.52437 33920 ft 495 kts 317°
2026-05-05 13:28 0.01301 32.47682 34016 ft 495 kts 316°
2026-05-05 13:29 0.05985 32.42639 34022 ft 496 kts 307°
2026-05-05 13:29 0.09995 32.37009 34022 ft 496 kts 305°
2026-05-05 13:30 0.13227 32.32262 33992 ft 498 kts 304°
2026-05-05 13:30 0.17115 32.26514 33972 ft 500 kts 304°
2026-05-05 13:31 0.21020 32.20769 33941 ft 499 kts 304°
2026-05-05 13:31 0.24913 32.15058 33915 ft 496 kts 304°
2026-05-05 13:32 0.28801 32.09357 33913 ft 496 kts 304°
2026-05-05 13:32 0.32673 32.03680 33916 ft 499 kts 305°
2026-05-05 13:33 0.36581 31.97935 33912 ft 499 kts 304°
2026-05-05 13:33 0.40474 31.92201 33905 ft 499 kts 304°
2026-05-05 13:34 0.44371 31.86462 33905 ft 499 kts 304°
2026-05-05 13:34 0.48269 31.80722 33907 ft 498 kts 304°
2026-05-05 13:35 0.52159 31.74995 33902 ft 498 kts 304°
2026-05-05 13:35 0.56024 31.69304 33902 ft 497 kts 304°
2026-05-05 13:36 0.59908 31.63586 33903 ft 497 kts 304°
2026-05-05 13:36 0.63797 31.57860 33904 ft 497 kts 304°
2026-05-05 13:37 0.67687 31.52141 33897 ft 496 kts 304°
2026-05-05 13:37 0.71551 31.46483 33901 ft 496 kts 304°
2026-05-05 13:38 0.75449 31.40775 33899 ft 498 kts 304°
2026-05-05 13:38 0.79365 31.35044 33893 ft 499 kts 304°
2026-05-05 13:39 0.83272 31.29325 33892 ft 497 kts 304°
2026-05-05 13:39 0.87169 31.23614 33887 ft 498 kts 305°
2026-05-05 13:40 0.91086 31.17878 33890 ft 500 kts 305°
2026-05-05 13:40 0.94998 31.12151 33878 ft 498 kts 304°
2026-05-05 13:41 0.98892 31.06445 33874 ft 497 kts 304°
2026-05-05 13:41 1.02766 31.00771 33873 ft 497 kts 304°
2026-05-05 13:42 1.06664 30.95062 33853 ft 496 kts 304°
2026-05-05 13:42 1.10551 30.89364 33854 ft 497 kts 304°
2026-05-05 13:43 1.14456 30.83645 33856 ft 499 kts 304°
2026-05-05 13:43 1.18363 30.77923 33836 ft 497 kts 304°
2026-05-05 13:44 1.22253 30.72222 33832 ft 497 kts 304°
2026-05-05 13:44 1.26161 30.66495 33834 ft 499 kts 304°
2026-05-05 13:45 1.30075 30.60810 33822 ft 500 kts 305°
2026-05-05 13:45 1.34068 30.55130 33826 ft 498 kts 305°
2026-05-05 13:46 1.38049 30.49468 33832 ft 497 kts 305°
2026-05-05 13:46 1.42015 30.43808 33831 ft 497 kts 305°
2026-05-05 13:47 1.45979 30.38140 33856 ft 497 kts 305°
2026-05-05 13:47 1.49916 30.32509 33855 ft 497 kts 305°
2026-05-05 13:48 1.53881 30.26838 33856 ft 497 kts 305°
2026-05-05 13:48 1.57480 30.20939 33858 ft 497 kts 296°
2026-05-05 13:49 1.60478 30.14730 33869 ft 496 kts 295°
2026-05-05 13:49 1.63362 30.08507 33871 ft 495 kts 295°
2026-05-05 13:50 1.66243 30.02278 33871 ft 493 kts 295°
2026-05-05 13:50 1.69137 29.96051 33871 ft 493 kts 295°
2026-05-05 13:51 1.72037 29.89826 33857 ft 494 kts 295°
2026-05-05 13:51 1.74940 29.83599 33870 ft 494 kts 295°
2026-05-05 13:52 1.77845 29.77381 33855 ft 492 kts 295°
2026-05-05 13:52 1.80827 29.71284 33857 ft 490 kts 296°
2026-05-05 13:53 1.83863 29.65180 33849 ft 490 kts 296°
2026-05-05 13:53 1.86889 29.59065 33845 ft 491 kts 296°
2026-05-05 13:54 1.89900 29.52947 33841 ft 491 kts 296°
2026-05-05 13:54 1.92915 29.46809 34072 ft 491 kts 296°
2026-05-05 13:55 1.94394 29.43731 34279 ft 490 kts 295°
2026-05-05 13:55 1.95847 29.40649 34472 ft 488 kts 295°
2026-05-05 13:55 1.97285 29.37575 34642 ft 488 kts 295°
2026-05-05 13:55 1.98705 29.34542 34765 ft 488 kts 295°
2026-05-05 13:56 2.01603 29.28375 34828 ft 492 kts 295°
2026-05-05 13:56 2.04521 29.22197 34818 ft 490 kts 295°
2026-05-05 13:57 2.07429 29.16045 34818 ft 489 kts 295°
2026-05-05 13:57 2.10335 29.09900 34816 ft 489 kts 295°
2026-05-05 13:58 2.13222 29.03791 34815 ft 489 kts 295°
2026-05-05 13:58 2.16128 28.97640 34813 ft 489 kts 295°
2026-05-05 13:59 2.20481 28.88425 34812 ft 488 kts 295°
2026-05-05 14:00 2.24343 28.80250 34816 ft 488 kts 295°
2026-05-05 14:00 2.27733 28.73075 34810 ft 488 kts 295°
2026-05-05 14:01 2.30629 28.66940 34807 ft 488 kts 295°
2026-05-05 14:01 2.33512 28.60833 34804 ft 488 kts 295°
2026-05-05 14:02 2.36405 28.54706 34804 ft 488 kts 295°
2026-05-05 14:02 2.39302 28.48570 34801 ft 488 kts 295°
2026-05-05 14:03 2.42203 28.42423 34802 ft 488 kts 295°
2026-05-05 14:03 2.45097 28.36290 34801 ft 488 kts 295°
2026-05-05 14:04 2.47970 28.30202 34798 ft 486 kts 295°
2026-05-05 14:04 2.50857 28.24082 34800 ft 486 kts 295°
2026-05-05 14:05 2.53751 28.17966 34797 ft 486 kts 295°
2026-05-05 14:05 2.56671 28.11857 34793 ft 486 kts 295°
2026-05-05 14:06 2.59589 28.05759 34789 ft 486 kts 295°
2026-05-05 14:06 2.62500 27.99665 34792 ft 484 kts 295°
2026-05-05 14:07 2.65402 27.93584 34793 ft 484 kts 295°
2026-05-05 14:07 2.68285 27.87540 34792 ft 484 kts 295°
2026-05-05 14:08 2.71192 27.81446 34791 ft 485 kts 295°
2026-05-05 14:08 2.74098 27.75352 34790 ft 485 kts 295°
2026-05-05 14:09 2.77007 27.69253 34791 ft 485 kts 295°
2026-05-05 14:09 2.79915 27.63153 34790 ft 485 kts 295°
2026-05-05 14:10 2.83409 27.57440 34790 ft 485 kts 305°
2026-05-05 14:10 2.87402 27.51995 34788 ft 485 kts 307°
2026-05-05 14:11 2.91467 27.46602 34791 ft 485 kts 307°
2026-05-05 14:11 2.95530 27.41210 34790 ft 484 kts 307°
2026-05-05 14:12 2.99574 27.35819 34784 ft 484 kts 307°
2026-05-05 14:12 3.03612 27.30424 34786 ft 484 kts 307°
2026-05-05 14:13 3.07647 27.25030 34788 ft 484 kts 307°
2026-05-05 14:13 3.11660 27.19667 34790 ft 484 kts 307°
2026-05-05 14:14 3.15700 27.14267 34784 ft 485 kts 307°
2026-05-05 14:14 3.19742 27.08863 34788 ft 485 kts 307°
2026-05-05 14:15 3.23789 27.03453 34790 ft 485 kts 307°
2026-05-05 14:15 3.27815 26.98070 34793 ft 486 kts 307°
2026-05-05 14:16 3.31860 26.92659 34793 ft 485 kts 307°
2026-05-05 14:16 3.35903 26.87251 34793 ft 485 kts 307°
2026-05-05 14:17 3.39949 26.81839 34797 ft 487 kts 307°
2026-05-05 14:17 3.44015 26.76399 34787 ft 486 kts 307°
2026-05-05 14:18 3.48066 26.70977 34790 ft 487 kts 307°
2026-05-05 14:18 3.51443 26.66457 34791 ft 487 kts 307°
2026-05-05 14:19 3.56158 26.60145 34783 ft 486 kts 307°
2026-05-05 14:19 3.60208 26.54723 34782 ft 487 kts 307°
2026-05-05 14:20 3.63602 26.50178 34785 ft 487 kts 307°
2026-05-05 14:20 3.67657 26.44747 34784 ft 486 kts 307°
2026-05-05 14:21 3.71682 26.39355 34773 ft 486 kts 307°
2026-05-05 14:21 3.75731 26.33931 34774 ft 486 kts 307°
2026-05-05 14:22 3.79779 26.28504 34776 ft 485 kts 308°
2026-05-05 14:22 3.83791 26.23128 34771 ft 483 kts 308°
2026-05-05 14:23 3.87820 26.17727 34775 ft 483 kts 308°
2026-05-05 14:23 3.91843 26.12335 34773 ft 484 kts 307°
2026-05-05 14:24 3.95877 26.06925 34773 ft 485 kts 307°
2026-05-05 14:24 3.99923 26.01498 34771 ft 485 kts 307°
2026-05-05 14:25 4.03959 25.96084 34774 ft 485 kts 307°
2026-05-05 14:25 4.07999 25.90663 34774 ft 486 kts 307°
2026-05-05 14:26 4.12020 25.85267 34779 ft 486 kts 308°
2026-05-05 14:26 4.16056 25.79848 34773 ft 484 kts 308°
2026-05-05 14:27 4.20084 25.74441 34773 ft 484 kts 308°
2026-05-05 14:27 4.24111 25.69035 34774 ft 484 kts 308°
2026-05-05 14:28 4.28139 25.63625 34775 ft 484 kts 308°
2026-05-05 14:28 4.32165 25.58217 34774 ft 484 kts 308°
2026-05-05 14:29 4.36187 25.52812 34773 ft 483 kts 308°
2026-05-05 14:29 4.40183 25.47443 34777 ft 483 kts 308°
2026-05-05 14:30 4.44207 25.42033 34777 ft 484 kts 308°
2026-05-05 14:30 4.48231 25.36624 34774 ft 483 kts 308°
2026-05-05 14:31 4.52251 25.31218 34775 ft 483 kts 308°
2026-05-05 14:31 4.56267 25.25816 34774 ft 483 kts 308°
2026-05-05 14:32 4.60256 25.20450 34774 ft 483 kts 308°
2026-05-05 14:32 4.64268 25.15052 34773 ft 483 kts 308°
2026-05-05 14:33 4.68282 25.09650 34771 ft 482 kts 308°
2026-05-05 14:33 4.72294 25.04249 34772 ft 482 kts 308°
2026-05-05 14:34 4.76303 24.98851 34767 ft 482 kts 308°
2026-05-05 14:34 4.80278 24.93497 34768 ft 482 kts 308°
2026-05-05 14:35 4.84277 24.88112 34777 ft 482 kts 308°
2026-05-05 14:35 4.88277 24.82724 34775 ft 481 kts 308°
2026-05-05 14:36 4.92274 24.77336 34771 ft 481 kts 308°
2026-05-05 14:36 4.96275 24.71947 34771 ft 481 kts 308°
2026-05-05 14:37 5.00237 24.66595 34773 ft 481 kts 308°
2026-05-05 14:37 5.04222 24.61209 34769 ft 481 kts 308°
2026-05-05 14:38 5.08212 24.55819 34772 ft 482 kts 307°
2026-05-05 14:38 5.12209 24.50418 34768 ft 482 kts 307°
2026-05-05 14:39 5.16209 24.45012 34772 ft 482 kts 307°
2026-05-05 14:39 5.20207 24.39620 34924 ft 480 kts 307°
2026-05-05 14:40 5.22199 24.36929 35056 ft 480 kts 307°
2026-05-05 14:40 5.24191 24.34238 35222 ft 479 kts 307°
2026-05-05 14:40 5.26180 24.31551 35404 ft 478 kts 307°
2026-05-05 14:40 5.28163 24.28870 35578 ft 478 kts 307°
2026-05-05 14:41 5.30142 24.26197 35716 ft 477 kts 307°
2026-05-05 14:41 5.32123 24.23520 35760 ft 479 kts 307°
2026-05-05 14:41 5.36078 24.18171 35770 ft 479 kts 307°
2026-05-05 14:42 5.40047 24.12805 35770 ft 477 kts 307°
2026-05-05 14:42 5.44007 24.07454 35775 ft 477 kts 307°
2026-05-05 14:43 5.47955 24.02117 35775 ft 474 kts 307°
2026-05-05 14:43 5.51883 23.96805 35777 ft 474 kts 307°
2026-05-05 14:44 5.55819 23.91478 35770 ft 474 kts 307°
2026-05-05 14:44 5.59724 23.86193 35773 ft 473 kts 307°
2026-05-05 14:45 5.63653 23.80877 35777 ft 475 kts 307°
2026-05-05 14:45 5.67603 23.75535 35775 ft 476 kts 307°
2026-05-05 14:46 5.71597 23.70240 35769 ft 474 kts 307°
2026-05-05 14:46 5.75594 23.64981 35772 ft 473 kts 307°
2026-05-05 14:47 5.79582 23.59718 35767 ft 473 kts 307°
2026-05-05 14:47 5.83543 23.54480 35769 ft 473 kts 307°
2026-05-05 14:48 5.87524 23.49209 35764 ft 473 kts 307°
2026-05-05 14:48 5.91507 23.43934 35766 ft 473 kts 307°
2026-05-05 14:49 5.95487 23.38662 35768 ft 471 kts 306°
2026-05-05 14:49 5.99433 23.33436 35761 ft 469 kts 306°
2026-05-05 14:50 6.03352 23.28242 35760 ft 470 kts 306°
2026-05-05 14:50 6.07315 23.22988 35754 ft 473 kts 306°
2026-05-05 14:51 6.11305 23.17696 35754 ft 474 kts 306°
2026-05-05 14:51 6.15252 23.12462 35752 ft 471 kts 306°
2026-05-05 14:52 6.19221 23.07197 35739 ft 474 kts 306°
2026-05-05 14:52 6.23210 23.01903 35743 ft 475 kts 306°
2026-05-05 14:53 6.27200 22.96606 35736 ft 474 kts 306°
2026-05-05 14:53 6.31182 22.91319 35740 ft 474 kts 306°
2026-05-05 14:54 6.35163 22.86032 35728 ft 474 kts 306°
2026-05-05 14:54 6.39145 22.80741 35725 ft 474 kts 306°
2026-05-05 14:55 6.43120 22.75459 35728 ft 473 kts 306°
2026-05-05 14:55 6.47070 22.70208 35720 ft 473 kts 306°
2026-05-05 14:56 6.51042 22.64926 35721 ft 473 kts 306°
2026-05-05 14:56 6.55014 22.59643 35720 ft 473 kts 306°
2026-05-05 14:57 6.58981 22.54365 35723 ft 473 kts 306°
2026-05-05 14:57 6.62958 22.49071 35717 ft 473 kts 306°
2026-05-05 14:58 6.66900 22.43823 35716 ft 473 kts 306°
2026-05-05 14:58 6.70866 22.38542 35717 ft 473 kts 306°
2026-05-05 14:59 6.74835 22.33254 35720 ft 473 kts 306°
2026-05-05 14:59 6.78802 22.27968 35723 ft 473 kts 306°
2026-05-05 15:00 6.82125 22.23539 35728 ft 473 kts 306°
2026-05-05 15:00 6.86730 22.17398 35727 ft 473 kts 306°
2026-05-05 15:01 6.90700 22.12104 35720 ft 473 kts 306°
2026-05-05 15:01 6.94669 22.06809 35723 ft 474 kts 306°
2026-05-05 15:02 6.98647 22.01499 35724 ft 474 kts 306°
2026-05-05 15:02 7.02598 21.96224 35722 ft 474 kts 306°
2026-05-05 15:03 7.06571 21.90918 35728 ft 474 kts 306°
2026-05-05 15:03 7.10542 21.85613 35730 ft 474 kts 306°
2026-05-05 15:04 7.14512 21.80308 35728 ft 474 kts 306°
2026-05-05 15:04 7.18482 21.75001 35728 ft 474 kts 306°
2026-05-05 15:05 7.24434 21.67047 35731 ft 474 kts 306°
2026-05-05 15:06 7.27728 21.62637 35728 ft 474 kts 306°
2026-05-05 15:06 7.32331 21.56473 35728 ft 474 kts 306°
2026-05-05 15:07 7.36290 21.51172 35739 ft 474 kts 306°
2026-05-05 15:07 7.39585 21.46759 35744 ft 474 kts 306°
2026-05-05 15:08 7.43548 21.41451 35748 ft 473 kts 306°
2026-05-05 15:08 7.47502 21.36151 35747 ft 472 kts 306°
2026-05-05 15:09 7.51451 21.30858 35756 ft 472 kts 306°
2026-05-05 15:09 7.55399 21.25563 35764 ft 472 kts 306°
2026-05-05 15:10 7.59347 21.20266 35767 ft 472 kts 306°
2026-05-05 15:10 7.63267 21.15006 35766 ft 472 kts 306°
2026-05-05 15:11 7.67209 21.09714 35777 ft 471 kts 306°
2026-05-05 15:11 7.71145 21.04429 35779 ft 471 kts 306°
2026-05-05 15:12 7.75078 20.99145 35780 ft 471 kts 306°
2026-05-05 15:12 7.79017 20.93853 35778 ft 471 kts 306°
2026-05-05 15:13 7.82948 20.88569 35786 ft 471 kts 305°
2026-05-05 15:13 7.86883 20.83277 35783 ft 471 kts 305°
2026-05-05 15:14 7.90820 20.77981 35783 ft 473 kts 306°
2026-05-05 15:14 7.94750 20.72691 35772 ft 475 kts 306°
2026-05-05 15:15 7.98720 20.67346 35778 ft 475 kts 306°
2026-05-05 15:15 8.02721 20.62027 35779 ft 476 kts 307°
2026-05-05 15:16 8.06824 20.56793 35778 ft 476 kts 307°
2026-05-05 15:16 8.10939 20.51561 35783 ft 477 kts 307°
2026-05-05 15:17 8.15049 20.46299 35780 ft 476 kts 307°
2026-05-05 15:17 8.19125 20.41061 35781 ft 473 kts 306°
2026-05-05 15:18 8.23175 20.35852 35779 ft 475 kts 307°
2026-05-05 15:18 8.27263 20.30593 35775 ft 478 kts 307°
2026-05-05 15:19 8.31376 20.25298 35771 ft 478 kts 307°
2026-05-05 15:19 8.35488 20.20006 35772 ft 479 kts 307°
2026-05-05 15:20 8.39593 20.14723 35773 ft 477 kts 306°
2026-05-05 15:20 8.43680 20.09455 35766 ft 476 kts 307°
2026-05-05 15:21 8.47770 20.04183 35764 ft 476 kts 307°
2026-05-05 15:21 8.51860 19.98911 35763 ft 477 kts 307°
2026-05-05 15:22 8.55929 19.93663 35759 ft 477 kts 307°
2026-05-05 15:22 8.60024 19.88378 35752 ft 477 kts 307°
2026-05-05 15:23 8.64112 19.83103 35749 ft 477 kts 307°
2026-05-05 15:23 8.68204 19.77818 35749 ft 477 kts 307°
2026-05-05 15:24 8.72296 19.72533 35740 ft 477 kts 307°
2026-05-05 15:24 8.76356 19.67286 35741 ft 477 kts 307°
2026-05-05 15:25 8.80450 19.61994 35747 ft 477 kts 307°
2026-05-05 15:25 8.84538 19.56706 35747 ft 477 kts 307°
2026-05-05 15:26 8.88624 19.51420 35759 ft 477 kts 307°
2026-05-05 15:26 8.92702 19.46141 35757 ft 476 kts 307°
2026-05-05 15:27 8.96752 19.40898 35756 ft 473 kts 307°
2026-05-05 15:27 9.00788 19.35668 35768 ft 470 kts 307°
2026-05-05 15:28 9.04814 19.30452 35767 ft 471 kts 307°
2026-05-05 15:28 9.08852 19.25217 35772 ft 471 kts 307°
2026-05-05 15:29 9.12870 19.20005 35775 ft 473 kts 307°
2026-05-05 15:29 9.16912 19.14759 35771 ft 472 kts 307°
2026-05-05 15:30 9.20946 19.09524 35773 ft 473 kts 307°
2026-05-05 15:30 9.24999 19.04261 35774 ft 474 kts 307°
2026-05-05 15:31 9.29051 18.98997 35772 ft 474 kts 307°
2026-05-05 15:31 9.33107 18.93725 35763 ft 474 kts 307°
2026-05-05 15:32 9.37164 18.88450 35764 ft 474 kts 307°
2026-05-05 15:32 9.41182 18.83223 35760 ft 474 kts 307°
2026-05-05 15:33 9.45232 18.77952 35763 ft 474 kts 307°
2026-05-05 15:33 9.49274 18.72691 35757 ft 472 kts 307°
2026-05-05 15:34 9.53310 18.67434 35750 ft 472 kts 307°
2026-05-05 15:34 9.57339 18.62183 35752 ft 472 kts 307°
2026-05-05 15:35 9.61368 18.56930 35742 ft 472 kts 307°
2026-05-05 15:35 9.65394 18.51678 35741 ft 472 kts 307°
2026-05-05 15:36 9.69398 18.46454 35744 ft 472 kts 307°
2026-05-05 15:36 9.73414 18.41212 35736 ft 470 kts 307°
2026-05-05 15:37 9.77415 18.35986 35735 ft 469 kts 307°
2026-05-05 15:37 9.81418 18.30756 35736 ft 469 kts 307°
2026-05-05 15:38 9.85418 18.25527 35734 ft 469 kts 307°
2026-05-05 15:38 9.89420 18.20293 35736 ft 469 kts 307°
2026-05-05 15:39 9.93396 18.15091 35731 ft 469 kts 307°
2026-05-05 15:39 9.97392 18.09860 35730 ft 469 kts 307°
2026-05-05 15:40 10.01390 18.04626 35730 ft 469 kts 307°
2026-05-05 15:40 10.05388 17.99388 35725 ft 469 kts 307°
2026-05-05 15:41 10.09382 17.94152 35724 ft 468 kts 307°
2026-05-05 15:41 10.13364 17.88931 35724 ft 467 kts 306°
2026-05-05 15:42 10.17340 17.83716 35722 ft 467 kts 306°
2026-05-05 15:42 10.21314 17.78499 35722 ft 467 kts 306°
2026-05-05 15:43 10.25264 17.73312 35721 ft 467 kts 306°
2026-05-05 15:43 10.29232 17.68100 35719 ft 466 kts 306°
2026-05-05 15:44 10.33201 17.62883 35718 ft 466 kts 306°
2026-05-05 15:44 10.37174 17.57660 35714 ft 466 kts 306°
2026-05-05 15:45 10.41136 17.52447 35714 ft 466 kts 306°
2026-05-05 15:45 10.45082 17.47254 35713 ft 466 kts 306°
2026-05-05 15:46 10.49048 17.42032 35708 ft 466 kts 306°
2026-05-05 15:46 10.53009 17.36814 35703 ft 466 kts 306°
2026-05-05 15:47 10.56962 17.31604 35704 ft 465 kts 307°
2026-05-05 15:47 10.60919 17.26386 35702 ft 465 kts 306°
2026-05-05 15:48 10.64870 17.21174 35702 ft 465 kts 306°
2026-05-05 15:48 10.68824 17.15955 35699 ft 465 kts 306°
2026-05-05 15:49 10.72754 17.10721 35700 ft 465 kts 305°
2026-05-05 15:49 10.76451 17.05369 35699 ft 465 kts 303°
2026-05-05 15:50 10.80115 16.99946 35696 ft 465 kts 303°
2026-05-05 15:50 10.83807 16.94541 35691 ft 464 kts 304°
2026-05-05 15:51 10.87513 16.89160 35692 ft 463 kts 304°
2026-05-05 15:51 10.91214 16.83796 35691 ft 463 kts 304°
2026-05-05 15:52 10.94920 16.78422 35691 ft 463 kts 304°
2026-05-05 15:52 10.98601 16.73086 35691 ft 463 kts 304°
2026-05-05 15:53 11.02296 16.67713 35690 ft 463 kts 304°
2026-05-05 15:53 11.05982 16.62353 35694 ft 462 kts 304°
2026-05-05 15:54 11.09667 16.56994 35693 ft 461 kts 304°
2026-05-05 15:54 11.13344 16.51644 35694 ft 461 kts 304°
2026-05-05 15:55 11.17013 16.46301 35700 ft 461 kts 304°
2026-05-05 15:55 11.20668 16.40978 35700 ft 461 kts 304°
2026-05-05 15:56 11.23719 16.36528 35701 ft 459 kts 303°
2026-05-05 15:56 11.27371 16.31204 35703 ft 457 kts 304°
2026-05-05 15:57 11.31018 16.25889 35698 ft 458 kts 304°
2026-05-05 15:57 11.34670 16.20558 35694 ft 459 kts 304°
2026-05-05 15:58 11.38337 16.15204 35693 ft 460 kts 304°
2026-05-05 15:58 11.42000 16.09855 35694 ft 460 kts 304°
2026-05-05 15:59 11.45648 16.04524 35694 ft 460 kts 304°
2026-05-05 15:59 11.49315 15.99162 35692 ft 460 kts 304°
2026-05-05 16:00 11.52980 15.93799 35694 ft 462 kts 304°
2026-05-05 16:00 11.56656 15.88418 35695 ft 462 kts 304°
2026-05-05 16:01 11.60332 15.83033 35709 ft 462 kts 304°
2026-05-05 16:01 11.63993 15.77667 35696 ft 459 kts 304°
2026-05-05 16:02 11.67642 15.72318 35697 ft 459 kts 304°
2026-05-05 16:02 11.71268 15.66999 35697 ft 459 kts 304°
2026-05-05 16:03 11.74913 15.61648 35703 ft 458 kts 304°
2026-05-05 16:03 11.78548 15.56310 35708 ft 458 kts 304°
2026-05-05 16:04 11.82181 15.50971 35708 ft 457 kts 304°
2026-05-05 16:04 11.85813 15.45632 35711 ft 457 kts 304°
2026-05-05 16:05 11.89420 15.40326 35710 ft 457 kts 304°
2026-05-05 16:05 11.93047 15.34987 35719 ft 457 kts 304°
2026-05-05 16:06 11.96675 15.29645 35716 ft 457 kts 304°
2026-05-05 16:06 12.00302 15.24302 35717 ft 457 kts 304°
2026-05-05 16:07 12.03919 15.18970 35721 ft 456 kts 304°
2026-05-05 16:07 12.07532 15.13641 35721 ft 456 kts 304°
2026-05-05 16:08 12.11221 15.08373 35719 ft 456 kts 309°
2026-05-05 16:08 12.15955 15.04066 35719 ft 459 kts 326°
2026-05-05 16:09 12.21777 15.01449 35719 ft 463 kts 339°
2026-05-05 16:09 12.27957 14.99518 35730 ft 465 kts 341°
2026-05-05 16:10 12.34171 14.97681 35733 ft 465 kts 341°
2026-05-05 16:10 12.40376 14.95818 35736 ft 465 kts 341°
2026-05-05 16:11 12.46588 14.93924 35733 ft 466 kts 340°
2026-05-05 16:11 12.55892 14.91071 36144 ft 464 kts 340°
2026-05-05 16:12 12.58980 14.90125 36335 ft 463 kts 340°
2026-05-05 16:12 12.65151 14.88232 36618 ft 463 kts 340°
2026-05-05 16:13 12.74369 14.85404 37091 ft 461 kts 340°
2026-05-05 16:13 12.77440 14.84461 37229 ft 460 kts 340°
2026-05-05 16:13 12.80505 14.83520 37363 ft 460 kts 340°
2026-05-05 16:14 12.86636 14.81636 37601 ft 460 kts 340°
2026-05-05 16:14 12.92781 14.79747 37736 ft 462 kts 340°
2026-05-05 16:15 13.05053 14.75974 37730 ft 459 kts 340°
2026-05-05 16:16 13.17249 14.72219 37732 ft 459 kts 339°
2026-05-05 16:17 13.26420 14.69392 37732 ft 459 kts 339°
2026-05-05 16:18 13.35584 14.66566 37731 ft 459 kts 339°
2026-05-05 16:19 13.44776 14.63729 37738 ft 459 kts 339°
2026-05-05 16:19 13.53924 14.60903 37735 ft 460 kts 339°
2026-05-05 16:20 13.66190 14.57111 37725 ft 460 kts 339°
2026-05-05 16:22 13.81479 14.52378 37732 ft 460 kts 339°
2026-05-05 16:23 13.93763 14.48570 37733 ft 461 kts 339°
2026-05-05 16:23 14.02986 14.45710 37733 ft 461 kts 339°
2026-05-05 16:24 14.09137 14.43800 37734 ft 461 kts 339°
2026-05-05 16:25 14.18322 14.40925 37665 ft 462 kts 339°
2026-05-05 16:25 14.27533 14.37963 37698 ft 461 kts 339°
2026-05-05 16:26 14.39740 14.33853 37660 ft 461 kts 338°
2026-05-05 16:27 14.45809 14.31711 37656 ft 461 kts 337°
2026-05-05 16:27 14.51852 14.29504 37696 ft 460 kts 336°
2026-05-05 16:28 14.57807 14.27210 37659 ft 460 kts 335°
2026-05-05 16:28 14.63767 14.24792 37650 ft 460 kts 334°
2026-05-05 16:29 14.69678 14.22279 37669 ft 458 kts 333°
2026-05-05 16:29 14.75515 14.19631 37674 ft 458 kts 332°
2026-05-05 16:30 14.81285 14.16846 37644 ft 457 kts 330°
2026-05-05 16:30 14.86996 14.13935 37655 ft 457 kts 329°
2026-05-05 16:31 14.92627 14.10890 37664 ft 456 kts 327°
2026-05-05 16:31 14.98161 14.07699 37668 ft 455 kts 326°
2026-05-05 16:32 15.03607 14.04367 37657 ft 454 kts 324°
2026-05-05 16:32 15.08963 14.00904 37669 ft 453 kts 323°
2026-05-05 16:33 15.14209 13.97351 37680 ft 453 kts 322°
2026-05-05 16:33 15.19419 13.93683 37668 ft 453 kts 321°
2026-05-05 16:34 15.24561 13.89919 37734 ft 451 kts 320°
2026-05-05 16:34 15.29603 13.86079 37834 ft 448 kts 319°
2026-05-05 16:35 15.34565 13.82157 37814 ft 449 kts 318°
2026-05-05 16:35 15.39443 13.78163 37785 ft 449 kts 317°
2026-05-05 16:36 15.43503 13.74745 37800 ft 448 kts 317°